[[{"header":{"parameterUnit":"m.s-1","parameterCategory":1,"la1":30.2991,"la2":30.254,"lo1":-89.0895,"lo2":-89.0444,"dy":0.0017,"dx":0.0017,"nx":28,"ny":28,"refTime":"2025-03-22T21:00:00:Z","depth":0,"parameterNumber":2,"parameterNumberName":"U-component_of_WINDS"},"data":[0,0,0,0,0,0,0,0,0,0,0,0,0,0,0,0,0,0,0,0,0,0,0,0,0,0,0,0,0,0,0,0,0,0,0,0,0,0,0,0,0,0,0,0,0,0,0,0,0,0,0,0,0,0,0,0,0,0,0.6545,0.6545,0,0.6512,0.6512,0.6512,0.6477,0.6477,0.6476,0.6476,0.6442,0.6442,0.6441,0,0,0,0,0,0,0,0,0,0,0,0,0,0.6578,0.6578,0.6545,0.6545,0.6545,0.6513,0.6512,0.6512,0.6477,0.6477,0.6476,0.6476,0.6442,0.6442,0.6441,0,0,0,0,0,0,0,0,0,0,0,0,0,0.6557,0.6578,0.6546,0.6524,0.6521,0.6513,0.6512,0.6511,0.6478,0.6477,0.6476,0.6476,0.6442,0.6442,0.6441,0.6451,0,0,0.6439,0.6439,0,0,0,0,0,0,0,0,0.6558,0.6555,0.6527,0.6525,0.6523,0.6498,0.6511,0.6491,0.6478,0.6494,0.6476,0.6475,0.6461,0.6459,0.6454,0.6449,0.6448,0.6439,0.6438,0.6438,0.6438,0,0,0,0,0,0,0,0.6559,0.6557,0.6532,0.6527,0.6524,0.6515,0.6512,0.6507,0.6482,0.6493,0.649,0.6487,0.646,0.6455,0.6453,0.6447,0.6439,0.6438,0.6438,0.6438,0.6448,0.6449,0,0,0,0,0,0,0.6564,0.6558,0.6533,0.6531,0.6539,0.6515,0.6511,0.6507,0.6482,0.6478,0.6487,0.6485,0.6457,0.6454,0.6452,0.6461,0.6438,0.6437,0.6437,0.6447,0.6448,0.6449,0,0,0,0,0,0,0.6565,0.6562,0.6535,0.6544,0.654,0.6516,0.6511,0.6507,0.6502,0.6478,0.6473,0.6487,0.6456,0.6453,0.6451,0.646,0.6437,0.6437,0.6446,0.6447,0.6448,0.6481,0,0,0,0,0,0,0.6566,0.6563,0.6567,0.6544,0.6539,0.6535,0.6512,0.6506,0.6501,0.6498,0.6477,0.6472,0.6455,0.6452,0.6451,0.6458,0.6436,0.6445,0.6447,0.6448,0.6479,0.6483,0.6486,0,0,0,0,0,0.6567,0.6577,0.6567,0.6564,0.6544,0.6535,0.6533,0.6513,0.6502,0.6505,0.649,0.6473,0.6459,0.6453,0.645,0.6458,0.6445,0.6446,0.6448,0.6477,0.6482,0.6486,0,0,0,0,0,0,0.6601,0.6574,0.6562,0.6565,0.6553,0.653,0.6533,0.6519,0.6509,0.6507,0.6482,0.6478,0.6479,0.6468,0.6461,0.6466,0.645,0.6451,0.6473,0.6477,0.6481,0.6483,0.6435,0,0,0,0,0,0.6609,0.6605,0.6581,0.6586,0.658,0.6558,0.6554,0.6539,0.6525,0.652,0.6505,0.6492,0.6484,0.648,0.6472,0.6477,0.6472,0.6481,0.6485,0.6488,0.6489,0.649,0.6494,0.6454,0.6454,0.6454,0,0,0.6625,0.6609,0.6608,0.6592,0.6581,0.6577,0.6554,0.655,0.6547,0.652,0.6517,0.6505,0.6489,0.6491,0.6491,0.6482,0.6499,0.649,0.6493,0.6492,0.6492,0.6496,0.6499,0.6455,0.6455,0.6455,0,0,0.6651,0.664,0.6642,0.6631,0.6614,0.6599,0.66,0.6579,0.657,0.6567,0.6546,0.6542,0.653,0.6519,0.6512,0.6534,0.6519,0.6532,0.6551,0.6553,0.6556,0.6558,0.6566,0.6569,0.6534,0.6534,0.6534,0,0.6673,0.6666,0.6645,0.6643,0.6636,0.6611,0.6613,0.6603,0.6585,0.6581,0.6571,0.6555,0.6543,0.6541,0.6547,0.6542,0.6541,0.6534,0.6557,0.656,0.6562,0.6568,0.6571,0.6535,0.6535,0.6535,0.6535,0,0.6693,0.6689,0.6693,0.6676,0.6669,0.6669,0.6648,0.6644,0.663,0.6616,0.6613,0.6597,0.6585,0.6584,0.657,0.658,0.6575,0.6562,0.6545,0.6568,0.6574,0.6576,0.6538,0.6537,0.6537,0.6536,0,0,0.674,0.6711,0.6713,0.6704,0.6684,0.668,0.6679,0.6667,0.6664,0.6652,0.665,0.664,0.6628,0.662,0.6605,0.6606,0.6624,0.6592,0.6592,0.6598,0.6633,0.6642,0.6646,0.6613,0.6614,0.6614,0.6634,0,0.6763,0.6759,0.674,0.6741,0.6737,0.6713,0.6711,0.6698,0.6685,0.6679,0.6664,0.6658,0.6642,0.6637,0.6637,0.6622,0.663,0.662,0.6611,0.6611,0.6615,0.6649,0.6659,0.6679,0.6636,0.6637,0.6637,0,0.6789,0.6779,0.678,0.6759,0.6756,0.6756,0.6743,0.6737,0.6722,0.6713,0.6704,0.6687,0.6684,0.6668,0.6663,0.6657,0.6652,0.6643,0.6644,0.6642,0.6625,0.6647,0.6684,0.6687,0.664,0.664,0.664,0,0.6822,0.6809,0.6807,0.6801,0.6777,0.6777,0.6767,0.6751,0.6745,0.6734,0.673,0.6719,0.6712,0.6704,0.6684,0.6675,0.6681,0.6664,0.6672,0.6673,0.6675,0.6675,0.6711,0.6672,0.6672,0.6672,0.6672,0,0.6849,0.6851,0.6822,0.6821,0.6822,0.6799,0.6801,0.6788,0.6775,0.6771,0.6749,0.6746,0.6721,0.6714,0.6699,0.6697,0.6694,0.6686,0.6682,0.6688,0.6689,0.6684,0.6682,0.6673,0.6673,0.6673,0.6673,0,0.6886,0.6867,0.6864,0.6842,0.6836,0.6837,0.6818,0.6816,0.6802,0.6797,0.6794,0.6772,0.6763,0.6743,0.6729,0.6719,0.672,0.6713,0.6725,0.6723,0.6732,0.6731,0.6765,0.6769,0.6729,0.6729,0.673,0,0.6905,0.6905,0.6883,0.6878,0.6869,0.6863,0.6857,0.6835,0.6829,0.6812,0.6812,0.6802,0.6792,0.678,0.6762,0.6751,0.6743,0.6755,0.6741,0.6746,0.6742,0.6742,0.6742,0.6759,0.6759,0.676,0.676,0,0.6939,0.6929,0.6921,0.691,0.6903,0.6893,0.6881,0.6879,0.6854,0.6849,0.684,0.6833,0.6818,0.6808,0.6794,0.6784,0.6768,0.6765,0.6766,0.6772,0.6779,0.6774,0.6733,0.6764,0.6764,0.6763,0.6763,0.6763,0.6966,0.6965,0.6949,0.6941,0.693,0.692,0.6917,0.6902,0.6894,0.6881,0.6868,0.6861,0.6845,0.6825,0.6815,0.6808,0.68,0.6802,0.6803,0.6803,0.6806,0.678,0.6806,0.6806,0.6806,0.6806,0.6805,0,0.6999,0.6987,0.698,0.6964,0.6958,0.6943,0.693,0.6925,0.6919,0.6906,0.6897,0.6886,0.6876,0.6858,0.6846,0.6844,0.6836,0.6842,0.6841,0.6839,0.6814,0.6814,0.6848,0.6848,0.6848,0.6848,0.6848,0.6848,0.7015,0.7012,0.7001,0.6993,0.6981,0.6973,0.6967,0.6957,0.6947,0.6936,0.6927,0.6915,0.69,0.6887,0.6877,0.6871,0.6868,0.6876,0.6868,0.6845,0.6841,0.6837,0.6837,0.6875,0.6875,0.6893,0.6893,0.6894]},{"header":{"parameterUnit":"m.s-1","parameterCategory":1,"la1":30.2991,"la2":30.254,"lo1":-89.0895,"lo2":-89.0444,"dy":0.0017,"dx":0.0017,"nx":28,"ny":28,"refTime":"2025-03-22T21:00:00:Z","depth":0,"parameterNumber":3,"parameterNumberName":"V-component_of_WINDS"},"data":[0,0,0,0,0,0,0,0,0,0,0,0,0,0,0,0,0,0,0,0,0,0,0,0,0,0,0,0,0,0,0,0,0,0,0,0,0,0,0,0,0,0,0,0,0,0,0,0,0,0,0,0,0,0,0,0,0,0,4.7661,4.7662,0,4.7749,4.775,4.7751,4.7719,4.7717,4.7715,4.7713,4.7799,4.7803,4.7808,0,0,0,0,0,0,0,0,0,0,0,0,0,4.7459,4.7462,4.7661,4.7662,4.7663,4.7749,4.7751,4.7752,4.7719,4.7717,4.7714,4.7712,4.7798,4.7803,4.7808,0,0,0,0,0,0,0,0,0,0,0,0,0,4.7547,4.7464,4.766,4.7657,4.7658,4.7749,4.7751,4.7752,4.772,4.7717,4.7714,4.7711,4.7796,4.7802,4.7809,4.7907,0,0,4.7828,4.783,0,0,0,0,0,0,0,0,4.7542,4.7554,4.7656,4.7658,4.7658,4.772,4.7711,4.7804,4.772,4.7696,4.7713,4.7709,4.7775,4.7783,4.7806,4.7911,4.7915,4.7828,4.7832,4.7835,4.7836,0,0,0,0,0,0,0,4.7536,4.755,4.7695,4.7658,4.7659,4.765,4.7659,4.7728,4.7751,4.7698,4.7696,4.7707,4.7775,4.78,4.7808,4.7916,4.7828,4.7834,4.7837,4.784,4.8108,4.8111,0,0,0,0,0,0,4.753,4.7545,4.7693,4.7698,4.7592,4.7656,4.7666,4.7703,4.775,4.7755,4.7709,4.7705,4.7791,4.7801,4.7811,4.793,4.7835,4.784,4.7844,4.8104,4.8108,4.8112,0,0,0,0,0,0,4.7525,4.7543,4.7689,4.7621,4.7639,4.7663,4.7704,4.7707,4.7732,4.7759,4.7763,4.7731,4.7789,4.7802,4.7884,4.7933,4.7843,4.7849,4.81,4.8105,4.811,4.817,0,0,0,0,0,0,4.752,4.7542,4.758,4.7622,4.7643,4.7762,4.7707,4.771,4.7743,4.7738,4.778,4.7784,4.7788,4.7875,4.789,4.794,4.7854,4.8096,4.8103,4.8109,4.8163,4.8176,4.8187,0,0,0,0,0,4.7513,4.7592,4.7583,4.7601,4.7692,4.7765,4.7777,4.778,4.7747,4.7786,4.7803,4.7783,4.7925,4.7884,4.79,4.7953,4.8093,4.8101,4.8108,4.8158,4.8174,4.8187,0,0,0,0,0,0,4.7553,4.7598,4.7587,4.7683,4.7721,4.776,4.7808,4.7796,4.7842,4.7836,4.7836,4.7846,4.7931,4.795,4.7903,4.8051,4.8004,4.8015,4.8036,4.8051,4.8063,4.8057,4.7859,0,0,0,0,0,4.7574,4.7631,4.7666,4.7747,4.7767,4.7784,4.7816,4.7816,4.7854,4.7869,4.7893,4.793,4.7983,4.8018,4.8068,4.8166,4.8175,4.821,4.8222,4.8231,4.8241,4.8296,4.8312,4.8137,4.8137,4.8137,0,0,4.7616,4.7647,4.7683,4.7756,4.7785,4.7844,4.7798,4.7861,4.7904,4.7878,4.7959,4.7977,4.8018,4.8109,4.815,4.8127,4.8292,4.8241,4.8248,4.8253,4.8305,4.8322,4.8337,4.8142,4.8141,4.814,0,0,4.7723,4.7752,4.7824,4.7855,4.79,4.7912,4.7929,4.797,4.7982,4.8062,4.8045,4.8095,4.8186,4.8217,4.8244,4.8364,4.8348,4.838,4.8442,4.8495,4.8509,4.8521,4.8566,4.8581,4.839,4.839,4.839,0,4.7769,4.7858,4.7861,4.7928,4.796,4.7941,4.8014,4.8043,4.8101,4.8124,4.8098,4.8213,4.8239,4.8338,4.8367,4.8389,4.8409,4.8376,4.8507,4.8519,4.8531,4.8573,4.8589,4.8394,4.8394,4.8393,4.8393,0,4.7913,4.7975,4.8027,4.8087,4.8126,4.8194,4.8207,4.8245,4.8242,4.8256,4.8338,4.8369,4.8426,4.8449,4.8445,4.8547,4.8532,4.8506,4.8459,4.8551,4.8591,4.8607,4.8399,4.8398,4.8397,4.8396,0,0,4.8048,4.8111,4.813,4.8157,4.8207,4.8254,4.8321,4.8379,4.8412,4.8453,4.851,4.8588,4.8566,4.8597,4.8596,4.8643,4.8738,4.8611,4.8612,4.8635,4.8854,4.8874,4.8893,4.8727,4.873,4.8732,4.8851,0,4.816,4.8281,4.8287,4.8396,4.8454,4.8437,4.8496,4.8532,4.8547,4.8597,4.8613,4.8669,4.8634,4.8653,4.8698,4.8717,4.8782,4.8708,4.878,4.8782,4.8771,4.8913,4.8934,4.9045,4.8866,4.8869,4.8871,0,4.8307,4.8356,4.8472,4.8515,4.8539,4.8592,4.8646,4.8694,4.8735,4.8742,4.8778,4.8771,4.884,4.879,4.8884,4.8834,4.8863,4.8877,4.8881,4.8889,4.8833,4.8926,4.908,4.9097,4.8895,4.8893,4.8891,0,4.8396,4.849,4.8572,4.8596,4.8648,4.8686,4.8708,4.8746,4.8781,4.8827,4.885,4.8903,4.8932,4.8973,4.898,4.8943,4.9076,4.9026,4.9084,4.9084,4.9114,4.9112,4.9276,4.913,4.913,4.913,4.9129,0,4.8521,4.8593,4.8613,4.8664,4.8744,4.8749,4.8828,4.8847,4.8882,4.8935,4.8923,4.8973,4.8979,4.9031,4.9036,4.9115,4.9128,4.9136,4.9137,4.9138,4.9137,4.9158,4.9151,4.9134,4.9133,4.9132,4.9132,0,4.8634,4.865,4.8739,4.8782,4.8794,4.8851,4.8887,4.8935,4.8949,4.9017,4.9033,4.9054,4.9115,4.9126,4.9197,4.9201,4.9295,4.9287,4.9282,4.9281,4.934,4.9335,4.9524,4.955,4.9386,4.9388,4.9389,0,4.8714,4.877,4.8819,4.8855,4.888,4.8938,4.8974,4.8981,4.9019,4.907,4.9112,4.9172,4.922,4.9317,4.9338,4.9393,4.9387,4.945,4.9395,4.9395,4.939,4.9387,4.9393,4.9461,4.9462,4.9464,4.9465,0,4.8854,4.886,4.8913,4.897,4.9014,4.9059,4.9101,4.9131,4.9143,4.9186,4.9249,4.9286,4.936,4.9419,4.9474,4.9496,4.9483,4.9482,4.9499,4.9501,4.9497,4.9501,4.9312,4.9478,4.9476,4.9476,4.9475,4.9474,4.8954,4.9003,4.9046,4.9107,4.9139,4.918,4.9228,4.9248,4.9302,4.9363,4.9363,4.9432,4.9472,4.9544,4.957,4.9624,4.9604,4.9627,4.9634,4.964,4.9646,4.9487,4.9633,4.9633,4.9633,4.9632,4.9632,0,4.9095,4.9122,4.9178,4.9238,4.9286,4.9271,4.9317,4.9357,4.9419,4.9458,4.9506,4.9579,4.9637,4.9663,4.972,4.9758,4.9754,4.9773,4.9771,4.9777,4.966,4.9641,4.9776,4.9776,4.9776,4.9776,4.9776,4.9776,4.9174,4.9257,4.9268,4.9367,4.9393,4.9463,4.9491,4.9528,4.9559,4.9642,4.969,4.9708,4.9742,4.9802,4.9854,4.986,4.9882,4.9905,4.9909,4.9799,4.9785,4.9771,4.9753,4.9909,4.991,5.0021,5.0022,5.0023]}]]